Location: Rotheul
(50.2849°N, 11.2349°E)
Time: 11:57:26
(UTC+02:00)

ISS - Pass Details

Date: 18 July 2018
Orbit: 402 x 408 km, 51.6° (Epoch: 21 July)

Event Time Altitude Azimuth Distance (km) Brightness Sun altitude
Exits shadow 02:22:50 - 274° (W) 1,722 -0.8 -17.4°
Reaches altitude 10° 02:23:28 10° 275° (W) 1,468 -1.1 -17.3°
Maximum altitude 02:26:44 67° 358° (N) 447 -3.5 -17.2°
Drops below altitude 10° 02:30:01 10° 83° (E) 1,471 -0.7 -17.1°
Sets 02:32:07 0° 86° (E) 2,333 0.3 -17.0°
